Wetbulb
56.12 56.16 56.16 56.33 55.83 55.90 55.75 55.55 55.85 55.83 56.09 56.24 56.25 56.08 56.53 56.69 56.42 51.12 47.68 53.76 54.70 60.73 60.92 54.99 54.74 54.32 51.41 45.94 45.43 44.84 35.52 32.65 35.92 39.20 42.44 48.06 45.06 50.25 51.85 49.55 52.01 56.58 68.13 70.37 72.38
55.93 55.77 55.47 55.55 55.66 55.40 55.17 55.12 55.42 55.77 56.01 55.83 56.09 55.98 56.47 56.75 50.94 49.00 56.10 59.80 59.67 60.71 54.11 51.77 51.23 52.45 43.12 42.37 42.47 39.70 33.25 36.08 41.98 43.80 43.99 47.31 46.40 48.07 48.21 48.46 50.11 60.88 69.63 71.55 71.08
56.22 55.63 55.39 55.09 55.13 55.13 54.94 55.15 55.41 55.60 55.75 55.86 55.86 56.37 56.69 56.16 48.64 51.21 60.94 60.45 60.70 59.56 55.97 54.64 53.38 50.63 40.64 40.21 41.07 38.98 36.11 41.09 44.52 45.60 46.57 46.69 47.07 48.69 47.03 45.40 49.00 56.99 64.70 70.05 69.20
55.64 55.60 55.17 54.75 54.42 54.46 54.61 54.65 55.03 55.52 55.87 55.61 55.98 56.99 57.07 52.63 41.43 53.58 61.05 61.23 61.56 58.46 55.17 52.69 50.21 42.88 39.02 38.55 41.70 36.49 42.09 42.90 44.51 45.99 45.48 44.91 47.29 46.49 47.41 47.44 51.21 52.14 57.93 61.45 68.54
55.36 55.08 54.69 54.63 54.70 54.36 54.25 54.56 55.03 55.03 55.39 55.71 57.08 57.08 52.96 48.54 48.88 56.72 62.47 61.27 58.23 54.97 51.58 48.55 44.99 43.46 38.70 41.42 42.71 38.76 41.31 43.91 44.13 43.24 43.74 46.07 44.98 45.55 46.29 49.94 52.13 52.77 58.12 64.11 68.80
54.71 54.79 54.41 54.57 54.63 54.73 54.69 54.77 54.89 54.71 55.46 56.10 57.34 56.47 50.81 43.53 53.00 56.98 58.08 56.05 54.88 50.77 49.60 47.64 43.96 46.38 43.26 41.52 40.00 43.21 43.70 44.12 43.83 42.51 41.66 41.88 43.34 44.06 46.99 50.22 51.20 51.57 51.89 54.46 65.38
54.85 54.40 54.44 54.44 54.81 54.83 55.01 55.02 55.02 55.25 55.79 56.49 56.94 54.30 49.95 48.20 53.56 54.47 54.55 50.89 51.85 52.42 49.03 49.19 48.14 45.48 45.46 42.05 44.20 44.23 39.76 42.22 42.96 42.44 41.38 42.82 41.24 42.48 47.26 49.94 49.54 50.28 50.64 54.12 56.70
55.52 54.24 54.41 54.62 54.78 55.09 55.13 55.27 55.08 55.33 56.18 57.14 56.84 52.16 47.57 56.44 52.43 51.30 51.55 52.13 53.56 52.55 51.06 50.38 49.14 44.96 42.69 44.03 43.46 39.94 37.37 32.70 40.07 43.38 44.41 41.48 36.19 43.52 45.81 46.90 47.56 49.62 51.07 52.24 64.00
55.43 54.64 54.78 54.72 54.64 55.01 55.23 54.96 55.19 55.84 56.91 57.15 51.29 49.81 46.72 56.47 52.28 54.49 52.85 51.11 52.33 52.45 50.80 53.67 47.55 43.46 43.55 36.65 33.05 34.80 31.23 35.72 39.18 44.53 43.82 41.07 37.62 43.97 45.60 46.48 46.53 47.74 49.12 50.06 55.66
55.31 54.62 54.53 54.55 54.37 54.62 54.66 54.74 54.25 54.41 55.66 56.01 54.02 46.76 49.95 50.01 53.51 54.93 54.22 53.51 50.90 49.94 47.77 46.14 42.53 38.65 36.51 33.26 27.27 31.67 33.02 35.64 36.22 41.24 42.92 41.10 41.18 45.35 47.28 44.83 45.49 46.37 47.87 48.81 51.18
55.19 54.49 54.31 54.43 54.35 54.07 51.42 49.84 45.04 45.26 50.33 47.91 49.04 50.25 52.33 53.98 55.72 53.63 54.60 52.03 50.77 46.84 39.00 42.19 36.77 33.80 37.15 38.29 39.43 38.67 36.95 35.00 38.53 43.13 40.83 40.14 40.98 43.17 45.52 42.74 44.02 45.66 46.30 47.50 49.52
54.88 54.62 54.45 54.27 53.92 53.71 49.13 48.14 49.25 49.13 44.12 51.60 51.69 51.81 54.39 54.39 48.68 52.22 54.15 47.35 45.52 40.18 42.61 38.56 34.12 40.93 43.44 42.32 40.53 38.41 35.43 35.11 39.42 43.17 42.03 39.89 39.24 43.18 44.82 45.10 44.00 45.50 46.00 47.25 51.67
54.04 53.84 54.23 54.04 53.50 49.86 49.07 52.30 53.46 52.74 42.79 48.93 52.51 50.90 50.64 51.50 48.09 49.39 52.29 48.95 44.03 40.32 39.37 35.40 39.84 44.78 43.35 41.62 38.49 36.76 35.08 35.36 36.08 40.95 42.55 38.92 36.97 40.13 44.00 44.46 45.22 46.83 47.44 48.03 57.15
53.51 53.49 53.64 52.75 49.85 49.95 48.85 52.76 53.76 53.45 39.23 44.86 47.83 50.49 50.61 49.71 47.06 54.20 53.45 48.53 43.76 39.72 40.58 39.45 42.70 43.18 41.25 39.25 40.25 33.60 39.86 39.31 38.18 36.79 31.36 40.43 28.42 36.59 40.54 41.95 43.52 44.95 46.23 46.67 60.37
53.22 53.57 53.27 52.56 45.91 47.78 51.59 51.78 52.65 50.90 24.35 44.57 45.89 52.96 49.51 46.08 48.35 49.47 53.16 48.27 42.61 42.03 41.53 39.45 41.50 41.31 39.92 40.10 41.84 37.91 43.71 40.11 38.15 34.15 32.61 35.16 28.43 34.50 38.41 39.23 41.76 43.20 45.18 46.37 58.50
53.06 53.16 52.71 50.51 48.23 51.05 53.23 50.28 51.95 37.12 27.02 40.97 45.45 44.69 44.59 47.31 47.14 49.08 48.45 50.43 48.67 42.87 42.80 41.55 46.21 43.79 42.57 44.98 44.59 44.25 39.35 36.97 34.54 30.49 24.90 32.11 30.67 31.96 33.96 38.70 41.07 43.83 45.31 47.13 58.15
52.85 52.93 50.98 52.12 47.97 51.11 50.66 49.22 38.07 27.20 42.96 39.18 40.71 43.95 43.70 41.85 42.39 45.24 43.26 40.68 36.89 34.11 34.39 39.19 39.68 44.03 45.77 40.14 43.32 40.73 34.24 24.93 21.00 19.57 22.04 34.96 31.85 33.57 38.35 41.89 43.59 44.22 44.68 46.33 57.33
51.45 50.99 50.96 52.29 50.02 51.12 49.67 42.64 30.50 39.69 38.89 43.74 43.36 43.63 39.42 41.56 41.32 41.75 39.40 37.11 42.30 40.30 35.39 34.48 29.96 39.97 45.07 40.46 37.49 36.25 35.37 27.05 17.94 21.44 25.25 34.51 27.81 32.48 42.14 44.55 45.61 45.92 45.21 46.38 55.20
50.27 48.83 51.15 54.59 53.68 50.49 45.23 33.77 33.02 39.16 43.27 42.31 42.54 39.56 38.78 40.41 40.00 38.09 36.98 38.15 42.70 41.20 36.11 35.30 33.32 43.30 43.60 43.82 42.43 37.90 32.41 35.14 30.02 30.66 26.48 28.94 33.73 41.75 44.02 44.99 45.38 44.76 45.75 44.97 56.59
45.19 47.25 50.69 55.65 52.16 48.43 40.88 38.03 39.18 46.45 46.87 44.29 36.60 40.30 34.11 36.97 36.17 35.70 37.13 43.14 42.14 44.06 43.65 39.07 32.90 40.04 42.74 43.94 42.34 38.89 40.81 28.46 28.65 22.09 21.10 29.18 31.13 33.01 38.73 42.21 44.80 45.44 47.23 46.59 54.42
46.29 46.22 51.86 51.93 50.73 43.34 34.70 37.08 42.94 48.24 48.27 43.51 40.27 38.27 38.14 36.45 36.95 34.86 37.59 41.84 43.81 43.76 43.32 41.62 37.53 35.71 40.00 37.11 34.27 35.42 32.24 32.26 31.34 30.08 25.77 25.17 28.85 39.51 39.63 42.21 42.90 44.47 47.58 48.81 57.28
43.29 40.34 51.68 51.10 41.56 39.46 36.92 42.39 45.57 46.31 48.15 46.83 44.25 41.41 39.28 39.18 36.16 36.16 36.84 40.23 46.38 44.54 39.50 42.15 37.80 32.85 34.74 41.05 43.22 39.10 36.54 35.65 27.29 25.55 31.71 29.08 30.94 44.24 43.70 45.21 45.18 45.52 47.80 49.42 55.72
41.36 42.49 51.00 48.97 35.33 36.28 41.47 44.28 46.06 44.83 43.96 43.24 42.92 44.79 43.46 37.96 31.70 36.87 37.89 45.20 45.66 43.08 40.98 41.65 36.59 30.76 32.02 36.74 40.50 37.43 39.14 37.08 34.40 30.07 29.35 27.61 31.14 44.00 45.81 46.88 46.41 45.87 48.33 54.50 60.79
42.66 39.88 42.76 42.87 41.86 38.42 37.58 39.60 41.86 45.90 44.84 43.56 41.96 43.00 40.63 37.97 38.73 35.49 36.99 42.87 44.81 44.23 47.41 43.75 37.35 32.90 27.91 33.82 37.64 34.37 36.83 37.84 34.49 27.29 30.45 32.18 34.68 39.73 42.41 44.31 46.50 46.85 48.57 52.98 57.56
44.01 40.49 41.93 36.36 40.42 40.69 39.78 41.13 39.14 39.10 43.40 42.98 40.37 41.62 39.10 35.90 36.13 34.54 38.54 39.34 43.63 46.26 45.03 42.21 35.35 35.95 36.62 37.57 37.67 36.79 35.96 36.63 34.74 35.65 31.97 34.92 35.97 40.13 42.27 42.99 44.77 46.14 48.54 51.00 54.98
41.31 43.59 42.20 41.03 41.21 39.68 40.62 38.20 39.12 40.93 39.68 39.03 37.52 39.91 39.92 37.54 36.23 35.91 37.25 37.72 37.90 42.85 41.66 41.47 34.40 36.19 34.35 37.54 37.50 35.28 36.81 37.02 36.73 36.81 35.91 36.94 36.84 43.69 44.96 45.85 45.25 46.29 48.53 49.44 52.31
47.47 47.69 44.04 39.79 39.67 38.65 37.83 39.99 40.53 40.24 41.70 42.76 40.86 38.70 39.18 41.41 44.13 43.47 43.03 42.58 42.19 41.61 40.11 39.15 36.50 34.12 30.92 36.63 37.08 32.07 35.97 36.78 37.51 39.23 39.42 35.55 39.36 42.86 43.56 45.04 44.34 45.43 48.01 49.84 52.58
MSLP
1020.19 1019.83 1019.52 1019.23 1019.01 1018.81 1018.53 1018.23 1017.85 1017.54 1017.20 1016.86 1016.49 1016.15 1015.85 1015.59 1015.13 1014.49 1014.11 1013.30 1013.02 1012.72 1012.33 1011.91 1011.40 1011.19 1011.15 1011.34 1011.00 1011.38 1012.49 1012.33 1011.28 1010.11 1008.77 1006.61 1006.60 1005.37 1004.40 1003.62 1002.26 1001.27 1000.04 1001.38 1003.41
1020.19 1019.79 1019.42 1019.13 1018.87 1018.65 1018.42 1018.12 1017.81 1017.46 1017.11 1016.73 1016.34 1015.91 1015.68 1015.34 1014.99 1014.21 1013.11 1012.85 1012.75 1012.65 1012.41 1012.25 1011.91 1011.71 1011.46 1011.25 1011.05 1011.39 1012.00 1011.35 1010.51 1009.61 1008.62 1006.77 1006.91 1005.63 1004.61 1003.94 1002.75 1001.13 999.54 1000.47 1001.43
1020.16 1019.75 1019.35 1018.99 1018.71 1018.44 1018.19 1017.89 1017.58 1017.27 1016.98 1016.66 1016.30 1015.75 1015.37 1015.25 1014.83 1013.43 1012.75 1012.64 1012.54 1012.57 1012.51 1012.50 1012.25 1012.16 1011.68 1011.33 1011.08 1010.97 1010.92 1010.51 1009.53 1008.73 1008.03 1006.79 1006.30 1005.69 1004.95 1004.27 1003.72 1003.30 1002.89 1001.36 1002.03
1020.07 1019.62 1019.25 1018.82 1018.53 1018.27 1018.03 1017.74 1017.42 1017.18 1016.88 1016.62 1016.19 1015.74 1015.30 1015.15 1014.38 1012.65 1012.32 1012.27 1012.26 1012.48 1012.54 1012.33 1012.17 1012.18 1011.94 1011.71 1010.95 1010.92 1010.33 1009.91 1008.98 1008.09 1007.51 1006.65 1005.65 1004.69 1004.72 1004.19 1003.62 1003.47 1003.72 1004.94 1001.51
1019.99 1019.51 1019.10 1018.69 1018.30 1017.97 1017.69 1017.39 1017.10 1016.90 1016.70 1016.45 1015.99 1015.54 1015.25 1014.67 1013.17 1011.90 1011.86 1011.91 1012.08 1012.25 1012.21 1012.09 1012.07 1011.99 1011.89 1011.67 1011.16 1010.68 1010.24 1009.51 1008.72 1008.09 1007.16 1006.39 1005.35 1004.52 1003.63 1003.66 1003.15 1002.91 1003.94 1004.48 1001.86
1019.84 1019.31 1018.82 1018.35 1018.00 1017.73 1017.35 1017.02 1016.81 1016.61 1016.41 1016.21 1015.81 1015.54 1015.21 1013.57 1011.52 1011.40 1011.58 1011.95 1011.90 1012.05 1011.64 1011.63 1011.84 1011.73 1011.57 1011.69 1011.64 1010.93 1010.38 1009.53 1008.59 1007.74 1006.95 1006.43 1005.26 1004.56 1002.43 1003.09 1002.79 1002.24 1003.01 1004.25 1002.94
1019.65 1019.11 1018.56 1017.97 1017.54 1017.24 1016.90 1016.65 1016.49 1016.35 1016.22 1016.08 1015.80 1015.61 1014.94 1012.55 1011.08 1011.23 1011.53 1011.29 1011.17 1011.13 1011.23 1011.15 1011.23 1011.75 1011.83 1011.85 1011.25 1011.14 1010.69 1009.57 1008.64 1007.84 1007.01 1006.38 1005.22 1003.77 1002.78 1002.80 1002.57 1001.81 1001.53 1002.69 1002.52
1019.49 1018.91 1018.33 1017.80 1017.31 1016.90 1016.51 1016.20 1016.14 1016.00 1015.94 1015.90 1015.82 1015.67 1014.04 1011.48 1011.12 1011.09 1011.10 1011.01 1010.69 1010.69 1010.82 1010.75 1010.84 1011.41 1011.78 1011.92 1011.66 1011.49 1011.18 1010.55 1009.25 1008.31 1007.12 1006.95 1005.68 1002.81 1003.35 1003.08 1002.08 1001.86 1001.10 1002.32 1003.75
1019.25 1018.68 1018.18 1017.72 1017.32 1016.86 1016.35 1015.93 1015.77 1015.71 1015.71 1015.84 1015.91 1015.49 1013.28 1011.47 1011.15 1010.55 1010.70 1010.76 1010.57 1010.49 1010.54 1010.63 1010.96 1011.67 1011.95 1012.45 1012.79 1012.43 1012.28 1011.33 1010.10 1009.19 1008.56 1007.76 1006.51 1002.73 1003.51 1003.11 1002.03 1002.05 1001.41 1001.60 1002.19
1019.03 1018.34 1017.80 1017.45 1017.06 1016.73 1016.16 1015.63 1015.53 1015.53 1015.38 1015.39 1015.28 1015.13 1012.57 1011.24 1010.43 1010.19 1010.25 1010.41 1010.57 1010.66 1010.88 1011.07 1011.63 1012.25 1012.58 1013.12 1013.30 1012.73 1012.27 1011.41 1010.54 1009.46 1008.95 1008.23 1006.84 1004.07 1003.73 1003.41 1002.16 1001.83 1001.57 1001.46 1001.64
1018.92 1018.23 1017.51 1016.97 1016.57 1016.28 1015.91 1015.55 1015.64 1015.36 1015.00 1014.21 1013.75 1013.05 1011.42 1010.39 1009.90 1009.81 1009.88 1010.29 1010.45 1010.93 1011.40 1011.30 1012.32 1012.42 1011.90 1011.88 1011.88 1011.95 1011.61 1011.04 1010.03 1009.12 1009.16 1008.40 1007.09 1005.02 1003.99 1003.11 1002.28 1001.55 1001.54 1001.59 1001.78
1018.67 1017.94 1017.23 1016.70 1016.31 1015.97 1016.31 1015.61 1014.41 1013.85 1013.64 1012.68 1012.31 1011.87 1010.87 1010.42 1010.21 1009.71 1009.78 1010.49 1010.73 1011.25 1011.39 1011.82 1011.81 1011.18 1010.88 1011.01 1011.11 1011.05 1010.90 1010.41 1009.42 1008.71 1008.96 1008.27 1007.01 1005.31 1003.85 1002.72 1001.92 1001.23 1001.22 1001.52 1001.60
1018.49 1017.65 1016.80 1016.00 1015.85 1015.96 1015.55 1014.37 1013.30 1013.03 1013.68 1012.11 1011.30 1010.55 1009.99 1009.99 1009.97 1009.78 1009.88 1010.23 1010.74 1011.17 1011.65 1011.85 1010.83 1010.32 1010.12 1010.01 1010.22 1009.95 1009.92 1009.50 1009.32 1008.49 1008.38 1008.16 1006.79 1005.23 1003.25 1002.15 1001.43 1000.50 1000.39 1001.21 1001.52
1018.11 1017.35 1016.51 1015.61 1015.42 1015.33 1014.51 1013.27 1012.83 1013.07 1013.70 1011.98 1010.81 1009.93 1009.72 1009.76 1009.93 1009.43 1009.45 1010.23 1010.75 1011.12 1011.54 1011.05 1010.20 1009.90 1009.69 1009.46 1009.44 1009.05 1008.86 1008.71 1008.64 1008.45 1007.87 1008.15 1007.40 1004.83 1003.43 1001.84 1001.18 1000.57 999.95 1000.31 1001.29
1017.76 1017.07 1016.34 1015.93 1015.47 1014.98 1013.57 1013.10 1012.81 1013.34 1013.75 1011.80 1010.90 1009.82 1009.86 1010.13 1010.22 1009.91 1009.79 1010.29 1010.81 1011.15 1012.05 1011.10 1010.13 1009.65 1008.91 1008.64 1008.70 1008.37 1008.19 1008.57 1008.38 1008.49 1008.52 1007.67 1007.57 1004.21 1003.71 1002.17 1000.61 1000.33 999.90 999.60 1000.80
1017.15 1016.69 1016.17 1015.84 1015.64 1013.81 1012.89 1012.94 1013.01 1013.97 1013.37 1012.36 1011.64 1010.94 1011.01 1010.78 1010.94 1010.31 1010.34 1010.41 1010.89 1011.53 1011.77 1011.15 1009.90 1009.45 1008.31 1007.95 1007.96 1008.10 1008.51 1008.72 1008.64 1008.92 1008.75 1007.57 1007.48 1003.82 1003.57 1001.62 1000.17 999.59 999.51 999.20 1000.13
1016.73 1015.75 1016.00 1015.14 1014.15 1012.94 1012.87 1013.59 1014.34 1014.53 1013.53 1013.13 1012.51 1012.10 1011.74 1011.89 1011.45 1011.31 1011.23 1011.42 1012.04 1012.58 1012.14 1011.34 1009.86 1008.51 1007.76 1007.84 1007.41 1007.99 1009.17 1010.10 1010.06 1010.03 1009.06 1007.85 1006.90 1003.72 1002.13 1000.68 999.71 999.38 999.19 998.81 999.67
1016.40 1015.31 1015.01 1013.98 1013.03 1013.31 1013.81 1014.50 1014.80 1014.59 1013.82 1013.21 1012.93 1012.60 1012.63 1012.47 1012.37 1012.28 1012.11 1012.45 1012.69 1013.15 1013.14 1012.22 1010.44 1009.01 1008.07 1008.04 1008.04 1008.25 1009.23 1010.61 1010.59 1010.53 1009.85 1008.16 1006.25 1003.99 1001.73 1000.22 999.63 999.42 999.00 998.66 999.05
1016.23 1015.16 1014.79 1013.07 1012.86 1013.67 1014.62 1015.68 1015.19 1014.52 1013.62 1013.01 1012.82 1012.87 1013.05 1013.09 1013.15 1013.07 1012.86 1012.75 1013.02 1013.68 1014.44 1013.09 1011.34 1009.22 1008.47 1007.65 1007.82 1008.10 1008.89 1009.62 1010.54 1010.71 1010.09 1008.02 1005.63 1003.81 1002.07 1000.99 999.73 998.99 998.52 998.21 998.49
1017.75 1016.57 1014.62 1012.44 1012.87 1014.13 1015.43 1016.15 1015.09 1013.91 1013.12 1012.75 1012.89 1013.09 1013.19 1013.24 1013.47 1013.30 1012.91 1012.72 1012.79 1013.38 1014.25 1013.79 1011.80 1009.70 1008.36 1007.51 1007.17 1007.53 1008.67 1009.84 1010.59 1010.62 1009.49 1007.61 1005.66 1004.16 1002.77 1001.65 1001.16 1000.50 999.06 998.03 998.22
1018.12 1016.91 1014.03 1012.69 1013.11 1014.96 1016.22 1015.79 1014.72 1013.54 1012.97 1012.72 1012.91 1012.94 1013.31 1013.17 1013.30 1013.28 1012.95 1012.44 1012.53 1012.82 1013.44 1013.47 1012.98 1010.55 1009.66 1007.90 1007.59 1007.90 1008.45 1009.21 1009.93 1009.90 1008.95 1007.58 1005.30 1003.99 1003.60 1002.94 1001.77 1000.70 999.32 998.03 997.13
1020.16 1018.03 1014.16 1013.34 1015.10 1016.54 1016.87 1015.70 1014.73 1013.53 1012.83 1012.43 1012.45 1012.71 1013.09 1013.11 1013.18 1013.11 1012.81 1012.33 1011.79 1012.45 1013.15 1013.27 1013.11 1011.41 1009.30 1007.51 1007.26 1007.63 1007.88 1008.66 1009.62 1009.06 1008.01 1006.73 1004.53 1003.75 1003.85 1003.46 1002.53 1001.39 999.67 997.41 995.77
1021.47 1019.01 1015.21 1014.85 1017.31 1018.07 1017.37 1016.26 1014.82 1013.81 1013.22 1012.95 1013.07 1012.83 1012.73 1013.09 1013.11 1012.60 1011.96 1011.21 1011.59 1012.35 1012.82 1013.12 1013.00 1011.83 1009.25 1007.59 1007.32 1007.66 1007.77 1008.29 1008.53 1008.12 1006.61 1006.52 1004.59 1004.09 1003.72 1003.44 1003.15 1001.37 999.55 998.21 996.74
1022.09 1020.59 1018.49 1018.03 1018.44 1018.92 1018.67 1017.17 1015.50 1014.33 1013.56 1013.42 1013.03 1012.83 1012.96 1013.03 1012.90 1012.33 1011.75 1011.13 1011.28 1011.77 1012.04 1012.91 1012.87 1012.58 1011.47 1009.62 1009.30 1008.49 1008.03 1007.95 1008.36 1007.97 1006.62 1005.85 1004.10 1003.60 1003.44 1003.07 1003.07 1001.64 1000.66 999.05 997.73
1022.24 1021.73 1021.03 1020.65 1019.39 1019.38 1019.16 1017.75 1016.17 1015.05 1014.33 1013.93 1013.68 1013.46 1013.54 1013.02 1012.64 1012.07 1011.39 1011.05 1011.19 1011.47 1012.12 1012.61 1012.53 1012.00 1010.90 1010.06 1009.58 1008.75 1007.54 1007.87 1007.56 1006.94 1006.79 1005.71 1004.64 1004.03 1003.03 1002.87 1003.17 1002.56 1001.07 999.51 998.28
1022.97 1022.70 1021.89 1021.20 1020.27 1019.45 1018.77 1017.81 1016.89 1015.64 1015.35 1014.19 1014.21 1013.91 1013.39 1012.85 1012.31 1011.72 1011.32 1010.66 1010.77 1011.43 1012.02 1012.34 1012.07 1011.41 1010.33 1009.71 1009.17 1008.15 1007.35 1007.40 1007.66 1006.43 1004.93 1005.22 1004.41 1003.53 1002.59 1001.93 1001.68 1001.11 1000.06 999.77 999.84
1022.90 1022.59 1022.50 1021.33 1020.44 1019.94 1018.89 1017.93 1017.61 1016.72 1015.05 1014.53 1014.07 1013.64 1013.04 1012.05 1011.49 1010.71 1010.00 1009.44 1009.49 1010.15 1011.30 1011.94 1011.95 1011.61 1010.48 1009.63 1009.16 1008.12 1007.26 1007.06 1007.56 1006.14 1004.99 1004.33 1004.25 1003.65 1002.65 1002.21 1002.03 1001.42 1000.59 999.91 999.62
Wind_Speed
17 16 16 15 15 15 16 16 16 16 17 17 17 17 15 15 16 3 2 5 3 7 11 7 4 6 1 4 4 4 2 4 6 3 7 18 7 10 11 7 16 12 9 19 18
17 16 16 16 15 14 15 15 16 16 16 16 16 16 15 15 3 2 7 5 4 6 4 6 7 11 3 3 3 5 4 8 5 6 13 22 8 15 14 14 13 20 18 31 34
18 17 16 15 15 14 14 15 15 15 15 15 14 14 14 10 2 3 7 7 6 3 2 3 6 3 4 1 4 5 6 7 14 13 13 21 17 13 11 8 9 7 2 29 27
20 18 16 15 14 14 14 14 14 14 14 14 13 12 12 3 3 3 9 9 10 4 3 3 4 3 3 4 5 4 7 10 14 14 12 16 13 17 10 8 9 8 7 18 27
20 19 18 16 14 12 12 13 13 13 13 12 12 10 3 3 5 7 10 9 5 2 4 3 3 3 2 5 7 3 4 8 8 10 12 16 18 15 13 9 10 11 4 16 22
22 20 19 16 14 13 11 10 10 12 12 11 10 7 2 3 3 8 9 4 8 2 4 6 4 7 5 4 2 6 10 13 8 10 7 7 11 5 17 8 13 11 5 10 23
23 21 20 17 14 12 12 10 10 10 10 9 7 3 2 8 2 8 7 5 4 8 2 4 3 5 6 8 4 8 8 11 6 6 7 4 13 18 7 6 10 11 13 10 19
21 22 21 19 16 13 13 12 9 11 9 7 5 2 6 5 4 3 3 6 4 3 3 4 3 2 2 4 8 6 3 5 7 10 9 4 15 26 7 6 18 11 16 5 16
21 21 20 20 18 16 13 13 11 10 7 6 2 1 8 7 4 5 7 2 3 4 5 7 3 2 5 1 5 6 3 9 8 11 9 6 13 27 3 7 17 11 12 8 6
21 21 18 17 17 16 16 11 3 6 3 4 5 4 5 3 3 3 5 4 5 5 4 2 3 2 3 4 4 6 6 6 11 6 11 14 17 24 15 10 16 13 13 8 4
23 22 19 16 13 11 8 3 6 4 2 6 4 4 12 2 2 4 5 4 3 2 4 4 3 8 14 11 12 8 5 11 15 12 1 13 18 20 15 10 14 14 10 8 8
24 23 22 18 13 6 1 0 5 5 8 7 12 12 17 7 4 4 6 3 3 6 6 4 7 16 13 7 9 7 8 9 10 14 4 15 23 22 19 14 13 18 12 8 6
24 24 23 19 13 2 3 6 5 6 1 7 6 6 6 6 4 4 4 2 4 6 8 5 14 14 13 8 9 7 8 8 11 11 7 10 20 16 18 10 9 15 14 6 9
26 25 22 24 2 4 4 3 5 5 5 5 1 4 5 3 2 4 3 2 3 6 6 9 4 9 17 15 10 10 7 10 12 6 8 7 10 13 11 17 7 11 13 10 9
29 24 20 11 2 3 6 3 3 6 6 9 8 2 11 3 6 4 2 3 6 10 2 15 22 19 18 13 12 11 12 14 8 5 3 12 5 9 4 13 16 8 12 12 14
32 25 12 2 0 8 8 5 5 8 2 5 5 11 13 7 9 3 2 3 2 2 4 15 13 14 16 17 14 9 5 5 4 2 7 11 7 12 5 11 10 8 10 14 12
33 27 6 2 4 2 5 5 7 6 5 7 6 9 10 9 14 5 5 7 3 6 9 11 6 6 5 9 13 7 4 4 5 3 5 2 2 17 7 14 16 13 10 11 16
34 22 5 5 5 6 4 7 7 5 2 3 4 8 4 10 11 11 9 9 4 5 6 7 9 3 3 3 4 2 6 6 6 2 4 10 8 8 8 18 18 13 10 9 12
24 5 3 6 4 4 7 6 3 4 4 4 4 4 2 6 3 6 6 1 3 4 4 6 7 11 20 24 5 1 3 5 2 1 2 5 8 8 12 15 14 14 13 9 12
4 5 5 4 6 6 7 4 5 5 7 3 2 2 5 6 5 4 3 2 4 5 7 4 13 9 11 8 4 6 4 2 2 4 5 6 5 3 15 21 22 21 21 16 13
4 6 5 7 5 7 3 5 7 12 7 4 3 4 6 6 4 4 5 6 3 3 4 6 5 8 10 5 4 1 2 3 3 3 4 4 5 5 8 10 20 25 26 23 14
5 4 5 6 7 2 2 5 8 11 6 4 4 5 5 7 5 5 7 7 9 3 5 1 5 7 17 19 13 3 5 6 4 7 5 4 8 7 12 10 17 22 22 21 19
5 4 5 8 4 4 7 9 5 6 5 5 8 4 7 4 4 6 7 6 9 8 5 4 3 7 10 5 5 1 3 1 3 2 16 10 5 5 10 6 15 22 19 16 11
3 5 7 6 2 3 6 8 7 9 6 10 13 9 4 5 7 8 6 5 9 7 12 7 4 7 7 6 4 13 17 18 4 4 8 9 16 6 5 4 6 22 14 13 6
3 3 1 6 8 12 6 10 9 7 3 4 6 10 16 11 8 6 6 4 4 7 5 6 5 10 17 19 17 19 25 18 17 16 11 12 17 11 1 3 4 22 9 8 8
3 3 5 8 8 4 7 6 5 13 7 8 9 17 18 9 5 14 8 7 6 5 7 5 5 6 11 16 18 23 22 18 17 19 19 15 17 9 9 5 5 13 6 6 8
2 3 1 5 6 6 4 6 22 10 8 12 14 14 13 8 16 19 16 13 11 8 9 5 4 2 5 6 8 10 14 12 10 14 13 12 15 7 6 5 6 7 3 0 3
Wind_Direction
348 343 340 338 338 335 335 334 335 337 337 336 337 335 334 329 318 312 254 237 244 320 315 283 296 303 146 237 180 109 29 274 256 295 269 294 331 322 301 311 324 307 152 137 143
346 342 337 333 328 328 329 329 331 332 333 338 337 334 333 333 321 292 248 231 273 323 351 0 323 353 343 236 288 128 157 239 225 271 280 283 303 309 330 341 331 332 131 148 150
346 342 337 330 324 323 324 326 328 331 335 337 338 330 328 333 333 322 206 231 248 262 279 299 282 286 299 45 233 221 224 232 265 259 264 280 289 288 286 309 301 355 7 147 151
346 342 337 330 324 321 321 322 324 326 330 335 333 323 321 303 91 256 210 233 248 238 291 309 333 293 281 305 292 307 253 240 259 260 263 268 280 277 256 265 266 259 196 270 167
346 345 339 331 323 316 315 316 319 322 326 327 324 328 352 355 247 224 217 234 265 267 242 274 288 323 281 282 321 227 303 308 281 275 264 270 268 272 265 264 269 276 171 259 189
348 344 340 331 323 315 304 300 300 306 315 319 322 332 12 17 198 193 210 205 240 218 295 349 323 298 272 320 9 308 310 301 299 294 273 285 294 313 271 297 287 281 273 130 252
347 344 339 329 324 316 302 288 286 296 306 306 318 315 321 230 217 202 191 235 229 207 289 272 308 31 335 328 313 303 307 315 307 291 280 340 306 278 312 312 296 291 293 111 299
342 344 338 332 327 321 307 296 289 293 297 288 307 339 252 260 247 265 199 280 337 197 227 273 293 246 236 314 331 300 318 332 321 317 294 121 275 274 299 299 290 299 301 339 173
341 343 338 336 332 324 309 289 285 284 277 272 305 97 282 313 260 245 192 201 312 303 263 254 55 254 340 47 351 10 298 314 322 333 332 333 284 280 305 240 276 282 291 303 99
339 338 337 339 335 328 310 287 291 314 203 210 257 322 272 208 220 239 189 207 240 277 335 150 62 303 326 88 229 240 272 261 274 295 333 309 288 289 310 253 263 271 274 288 229
338 337 334 335 334 331 345 353 9 9 85 219 221 266 291 219 250 248 161 210 267 328 260 239 146 229 240 222 236 215 233 261 282 271 234 282 285 287 304 269 257 263 262 267 236
336 336 333 328 325 327 358 17 237 206 306 245 247 251 252 270 275 292 136 190 240 277 302 342 225 235 254 224 208 213 234 260 276 260 179 309 297 288 288 273 246 257 249 242 247
336 334 331 325 321 110 172 228 256 95 359 291 224 250 260 142 238 270 152 265 260 304 306 257 272 286 286 294 222 223 230 255 252 287 223 247 280 275 284 272 271 251 241 176 206
336 333 331 321 81 306 267 258 137 101 61 323 132 298 327 165 246 241 182 180 293 277 293 275 291 314 309 297 293 272 232 257 265 271 273 73 288 269 270 277 284 275 244 224 182
335 335 334 297 242 337 251 258 126 60 57 318 18 42 325 83 300 334 11 4 254 278 58 274 291 289 279 276 282 284 276 273 237 245 307 272 249 280 198 277 281 270 245 243 177
335 335 337 103 41 238 290 297 53 48 335 5 17 349 352 340 343 353 355 345 351 1 260 273 273 273 255 267 283 296 306 305 297 182 249 268 191 267 209 233 272 273 241 241 171
334 328 300 303 247 290 347 45 45 85 305 349 346 332 326 352 341 10 304 338 31 341 317 318 295 262 281 298 281 245 88 331 318 352 226 207 327 246 249 245 236 255 271 237 168
329 321 211 227 257 11 44 48 69 331 126 245 323 312 0 354 318 351 341 328 23 42 315 330 322 309 134 241 261 222 185 175 225 249 282 299 237 249 252 244 253 260 248 238 170
326 336 307 265 218 84 61 42 235 305 270 279 300 274 256 328 303 0 314 241 34 65 317 300 257 316 296 296 177 217 185 219 239 277 280 246 282 291 337 324 281 255 261 248 183
339 333 280 296 106 64 69 266 320 283 291 249 279 299 300 318 335 331 303 240 321 128 140 259 293 291 302 306 232 178 155 93 38 243 251 270 295 238 358 355 338 338 339 272 175
21 7 272 325 74 50 124 240 291 317 316 275 261 264 259 274 262 269 248 269 173 235 147 256 232 293 313 237 200 164 3 67 148 212 194 294 263 279 15 1 339 330 320 305 173
346 346 303 17 53 23 317 285 292 311 315 305 252 237 257 288 269 251 241 220 213 137 307 100 293 280 272 262 267 220 236 165 172 273 218 212 276 324 41 4 348 310 312 323 176
338 276 317 59 64 328 300 309 287 335 313 346 299 261 291 267 318 240 242 244 155 159 188 163 253 304 311 358 43 284 339 65 293 292 255 267 249 109 77 31 326 312 322 329 196
4 347 330 24 108 5 336 287 312 320 304 357 291 292 331 295 266 276 280 249 183 194 179 149 217 211 250 287 325 294 294 295 254 243 297 263 290 312 143 338 313 318 305 352 286
43 295 83 304 325 317 303 280 319 341 281 323 306 335 320 301 288 261 274 275 202 210 172 171 261 232 247 260 276 276 277 278 280 273 263 298 280 302 339 201 278 281 279 11 354
34 339 341 281 274 295 307 307 329 323 339 304 335 317 311 291 241 300 283 284 230 161 154 191 265 249 270 260 255 258 269 276 272 277 278 274 279 252 244 255 291 279 357 6 54
309 318 188 269 308 320 265 329 310 324 293 311 296 307 303 277 314 288 267 266 235 179 177 179 238 304 264 346 298 274 276 290 313 292 290 284 288 201 270 295 265 261 226 285 113